Location: Eastchurch
(51.4000°N, 0.8667°E)
Time: 23:42:28
(UTC+00:00)

ATLAS 3B R/B - Pass Details

Date: 19 January 2026
Orbit: 936 x 1258 km, 63.8° (Epoch: 9 February)

Event Time Altitude Azimuth Distance (km) Brightness Sun altitude
Rises 19:37:08 0° 306° (NW) 4,211 6.6 -29.6°
Reaches altitude 10° 19:40:10 10° 313° (NW) 3,248 5.8 -30.0°
Enters shadow 19:47:30 42° 21° (NNE) 1,707 3.5 -31.2°
